ONEWEB-0017, 45132

Orbit data source: Space-Track

ONEWEB-0017, 45132 is a payload satellite owned by One Web (UK) in LEO that was launched on Thu, 06 Feb 2020 UTC via a SOYUZ-2-1B launch vehicle from the Tyuratam Missile And Space Complex (TTMTR). Payload-class satellites include a variety of spacecraft equipped with specific instruments for various scientific and technological missions. These include communications satellites like Starlink; space stations such as the ISS; scientific satellites like the Hubble; Earth observation satellites from companies like Planet Labs, Umbra, and HawkEye 360; GPS; miniature CubeSats for education and research; and military/defense satellites.

Loading next visibility...
Identifier
45132, 2020-008B
Orbit
LEO
Country
Flag of UKUK
Related business
Manufacturer
One Web
Mission
Operational Commercial Communications
Bus & Motor
ARROW, Unknown motor
Mass
148 kg wet, ~140 kg dry
Launch date (UTC)
2020-02-06 (6 years ago)
Launch vehicle
SOYUZ-2-1B
Launch site
Tyuratam Missile And Space Complex (TTMTR)
Object type
Payload
Rocket body
Debris
Shape & HBR
Trap Box + 2 Pan, 6.7 m
Radar Cross Section
3.464 m², Large (>1 m²)

Expand to show TLE details & history
Last TLE update: 14 hours ago

TLE from 14 hours ago
0 ONEWEB-0017
1 45132U 20008B   25347.29828666  .00000330  00000-0  90870-3 0  9996
2 45132  87.8808  73.3314 0001540  93.8710 266.2593 13.10374523283606
Epoch: 2025-12-13T07:09Z
TLE epoch observation values (Epoch: 2025-12-13T07:09:31.967Z)
Latitude
-0.00006°
Longitude
-116.27936°
Altitude
1,224.675 km
Speed
7.242 km/s
True Right ascension
04h 53m 19s
True Declination
0° 00' 00"
Sunlit
Object was in full shadow at epoch
Visualization orbit readout
Latitude
Unknown
Longitude
Unknown
Altitude
Unknown
Speed
Unknown
Apparent Right ascension
Unknown
Apparent Declination
Unknown
Sunlit
N/A
Visualization observer readout
Local Sidereal Time
20:10:10
Azimuth
Unknown
Elevation
Unknown
Doppler factor
Unknown
Orbital elements
Apogee altitude
1,220 km
Perigee altitude
1,217.66 km
Semi-major axis
7,596.967 km
Eccentricity
0.00015
Inclination
87.8808°
RAAN
73.3314°
Arg. of periapsis
93.871°
True anomaly
266.24169°
Mean anomaly
266.2593°
Eccentric anomaly
266.2505°
Mean motion
3.2778 °/min
Orbital period
109.83 mins
BSTAR
0.0009087
Loading maneuver chart data...
Computing Atmospheric mass density...
Loading historical data...
Loading historical data...
Loading historical data...
Loading historical data...
Loading historical data...
Loading historical data...
Loading historical data...

Documentation

Showing up to 5 results
|